Location: Newark
(45.9167°N, 5.5000°E)
Time: 11:37:12
(UTC+00:00)

N. Korean satellite - Pass Details

Date: 29 January 2020
Orbit: 456 x 505 km, 97.2° (Epoch: 23 February)

Event Time Altitude Azimuth Distance (km) Brightness Sun altitude
Rises 17:45:56 0° 215° (SW) 2,463 11.0 -11.9°
Reaches altitude 10° 17:49:18 10° 252° (WSW) 1,601 10.7 -12.5°
Maximum altitude 17:50:23 11° 270° (W) 1,533 10.4 -12.7°
Drops below altitude 10° 17:51:29 10° 289° (WNW) 1,609 10.1 -12.8°
Sets 17:54:54 0° 326° (NW) 2,501 10.5 -13.4°
